Notices

What's New in latest Release from April 7th, 2021:

- Updated Glossary, including Speed of Maximum Gust, and Total Hourly Precipitation

- Updated national and regional climate services offices contacts and prices information

- Addition of station inventory lists for 1981-2010, 1971-2000, and 1961-1990 Normals.

If you haven't already, please take our survey and provide feedback about our website: https://eccc.sondage-survey.ca/f/LanguageSelection.aspx?s=442ca660-fcf1-47c0-95a9-59707d6fd709

Hourly Data Report for April 04, 2017

CLYDE RIVER A
NUNAVUT

70°29'09.000" N
68°31'01.000" W
26.50 m
2400804
71090
YCY

Download Data

Hourly Data (April 2017)
Hourly Data Report for April 4, 2017
TIME
LST
Temp Definition
°C
Dew Point Definition
°C
Rel Hum Definition
%
Precip. Amount Definition
mm

Wind Dir Definition
10's deg

Wind Spd Definition
km/h
Visibility Definition
km
Stn Press Definition
kPa
Hmdx Definition


Wind Chill Definition


Weather Definition


00:00 -14.0 -17.8 74 0.0 29 5 16.1 101.08   -17 LegendNANA
01:00 -9.2 -15.6 60 0.0 22 5 16.1 101.08   -12 LegendNANA
02:00 -10.4 -14.3 73 0.0 28 5 16.1 101.12   -13 LegendNANA
03:00 -8.9 -13.6 69 0.0 22 9 16.1 101.14   -14 LegendNANA
04:00 -10.1 -13.9 74 0.0 36 8 16.1 101.15   -15 LegendNANA
05:00 -11.3 -14.5 78 0.0 36 13 16.1 101.21   -18 LegendNANA
06:00 -10.0 -14.1 73 0.0 12 8 16.1 101.26   -14 LegendNANA
07:00 -12.2 -15.1 79 0.0 2 8 16.1 101.33   -17 LegendNANA
08:00 -12.1 -15.5 76 0.0 1 11 16.1 101.38   -18 LegendNANA
09:00 -11.5 -14.6 78 0.0 LegendMM 5 16.1 101.46   -15 LegendNANA
10:00 -11.5 -14.1 81 0.0 33 9 16.1 101.53   -17 LegendNANA
11:00 -10.7 -13.4 81 0.0 31 17 16.1 101.55   -18 LegendNANA
12:00 -10.0 -13.2 78 0.0 30 9 16.1 101.58   -15 LegendNANA
13:00 -9.6 -13.2 75 0.0 34 5 16.1 101.60   -12 LegendNANA
14:00 -10.9 -14.0 78 0.0 32 5 16.1 101.62   -14 LegendNANA
15:00 -11.5 -14.8 77 0.0 31 5 16.1 101.63   -15 LegendNANA
16:00 -11.8 -15.1 77 0.0 25 4 16.1 101.63   -14 LegendNANA
17:00 -12.8 -15.9 78 0.0   0 16.1 101.62     LegendNANA
18:00 -15.2 -17.8 81 0.0   0 16.1 101.63     LegendNANA
19:00 -15.3 -17.5 83 0.0   0 16.1 101.65     LegendNANA
20:00 -18.1 -20.2 84 0.0   0 16.1 101.65     LegendNANA
21:00 -17.2 -19.2 85 0.0 2 5 16.1 101.64   -21 LegendNANA
22:00 -19.4 -21.0 87 0.0 1 5 16.1 101.61   -24 LegendNANA
23:00 -16.2 -17.3 91 0.0 7 4 16.1 101.59   -19 LegendNANA

Notes on Data Quality.

Legend

  • E = Estimated
  • M = Missing
  • NA = Not Available*
  • [empty] = Indicates an unobserved value
Date modified: